DW9443 Weather Reports


Display with metric or nautical units.
time (UTC)temp
F
wind
direction
speed
MPH
gust
MPH
rain 1hr
in
rain 24hr
in
rain mn
in
humidity
%
barometer
mb
20171020122016 15 26 0.0 0.0 0.00 0.00 0.00 67 989.7
20171020120523 16 26 0.0 0.0 0.00 0.00 0.00 67 989.7
20171020115016 15 26 2.0 0.0 0.00 0.00 0.00 70 989.7
20171020113514 14 24 0.0 0.0 0.00 0.00 0.00 68 989.7
20171020112017 15 24 0.0 0.0 0.00 0.00 0.00 68 989.9
20171020110526 15 24 0.0 0.0 0.00 0.00 0.00 68 989.8
20171020105014 15 24 2.0 0.0 0.00 0.00 0.00 68 989.7
20171020103513 14 24 1.0 0.0 0.00 0.00 0.00 68 989.9
20171020102013 16 63 2.0 0.0 0.00 0.00 0.00 65 989.8
20171020100513 15 23 5.0 0.0 0.00 0.00 0.00 68 989.8
20171020095011 15 19 4.0 0.0 0.00 0.00 0.00 69 989.8
20171020093509 15 24 4.0 0.0 0.00 0.00 0.00 70 989.5
20171020092009 15 24 4.0 0.0 0.00 0.00 0.00 70 989.5
20171020090508 15 25 1.0 0.0 0.00 0.00 0.00 68 989.4
20171020085007 14 38 1.0 0.0 0.00 0.00 0.00 71 989.6
20171020083514 14 104 0.0 0.0 0.00 0.00 0.00 69 989.5
20171020082002 16 56 1.0 0.0 0.00 0.00 0.00 64 989.2
20171020080458 17 42 1.0 0.0 0.00 0.00 0.00 63 989.2
20171020074955 16 37 1.0 0.0 0.00 0.00 0.00 66 989.2
20171020073500 14 90 1.0 0.0 0.00 0.00 0.00 68 989.2
20171020072013 15 93 1.0 0.0 0.00 0.00 0.00 66 989.1
20171020070455 15 63 1.0 0.0 0.00 0.00 0.00 66 989.1
20171020064954 15 96 1.0 0.0 0.00 0.00 0.00 66 989.1
20171020063456 16 100 0.0 0.0 0.00 0.00 0.00 64 989.1
20171020061951 18 87 0.0 0.0 0.00 0.00 0.00 59 989.2
20171020060452 18 98 1.0 0.0 0.00 0.00 0.00 59 989.2
20171020054949 18 70 1.0 0.0 0.00 0.00 0.00 59 989.3
20171020053457 19 16 4.0 0.0 0.00 0.00 0.00 57 989.4
20171020051947 19 14 4.0 0.0 0.00 0.00 0.00 57 989.4
20171020050451 20 351 5.0 0.0 0.00 0.00 0.00 56 989.3
20171020044946 20 341 4.0 0.0 0.00 0.00 0.00 56 989.3
20171020043447 20 338 3.0 0.0 0.00 0.00 0.00 55 989.3
20171020041953 21 338 3.0 0.0 0.00 0.00 0.00 54 989.2
20171020040447 21 345 6.0 0.0 0.00 0.00 0.00 52 989.1
20171020034948 22 346 6.0 0.0 0.00 0.00 0.00 51 989.0
20171020033453 22 9 6.0 0.0 0.00 0.00 0.00 50 989.0
20171020031941 22 10 7.0 0.0 0.00 0.00 0.00 49 988.8
20171020030446 23 5 7.0 0.0 0.00 0.00 0.00 47 989.0
20171020024941 23 5 10.0 0.0 0.00 0.00 0.00 46 989.0
20171020023450 24 9 11.0 0.0 0.00 0.00 0.00 45 989.0
20171020022015 24 355 10.0 0.0 0.00 0.00 0.00 44 989.0
20171020020441 25 338 10.0 0.0 0.00 0.00 0.00 43 988.9
20171020014938 25 350 13.0 0.0 0.00 0.00 0.00 42 988.8
20171020013437 25 42 13.0 0.0 0.00 0.00 0.00 42 988.9
20171020011944 26 360 13.0 0.0 0.00 0.00 0.00 42 988.9
20171020010436 26 331 11.0 0.0 0.00 0.00 0.00 42 989.1
20171020004936 26 355 13.0 0.0 0.00 0.00 0.00 41 989.0
20171020003447 26 344 14.0 0.0 0.00 0.00 0.00 41 988.9
20171020001936 26 346 13.0 0.0 0.00 0.00 0.00 40 989.0
20171020000440 27 331 13.0 0.0 0.00 0.00 0.00 40 988.9
20171019234933 27 342 12.0 0.0 0.00 0.00 0.00 42 989.0
20171019233432 27 331 10.0 0.0 0.00 0.00 0.00 44 989.1
20171019231930 27 5 7.0 0.0 0.00 0.00 0.00 46 989.4
20171019230429 26 355 7.0 0.0 0.00 0.00 0.00 47 989.5
20171019224935 26 336 9.0 0.0 0.00 0.00 0.00 48 989.5
20171019223437 26 348 5.0 0.0 0.00 0.00 0.00 50 989.6
20171019221922 25 351 4.0 0.0 0.00 0.00 0.00 53 989.7
20171019220429 24 344 4.0 0.0 0.00 0.00 0.00 56 989.7
20171019214936 24 346 3.0 0.0 0.00 0.00 0.00 56 989.8
20171019213416 23 360 1.0 0.0 0.00 0.00 0.00 57 989.9
20171019211927 23 360 3.0 0.0 0.00 0.00 0.00 58 989.8
20171019210413 22 355 3.0 0.0 0.00 0.00 0.00 59 989.9
20171019204913 22 355 3.0 0.0 0.00 0.00 0.00 60 989.9
20171019203412 22 360 4.0 0.0 0.00 0.00 0.00 61 989.8
20171019201911 22 360 3.0 0.0 0.00 0.00 0.00 63 989.8
20171019200410 21 360 4.0 0.0 0.00 0.00 0.00 63 989.8
20171019194919 21 5 5.0 0.0 0.00 0.00 0.00 63 989.6
20171019193407 21 5 5.0 0.0 0.00 0.00 0.00 64 989.5
20171019191905 20 11 4.0 0.0 0.00 0.00 0.00 63 989.4
20171019190405 20 13 5.0 0.0 0.00 0.00 0.00 64 989.3
20171019184908 20 19 4.0 0.0 0.00 0.00 0.00 65 989.3
20171019183403 20 25 4.0 0.0 0.00 0.00 0.00 65 989.2
20171019181906 0 0.0 0.0 0.00 0.00 0.00 989.1
20171019180356 0 0.0 0.0 0.00 0.00 0.00 989.2
20171019174851 0 0.0 0.0 0.00 0.00 0.00 989.0
20171019173357 0 0.0 0.0 0.00 0.00 0.00 988.9
20171019171843 0 0.0 0.0 0.00 0.00 0.00 989.0
20171019170340 0 0.0 0.0 0.00 0.00 0.00 988.8
20171019164838 0 0.0 0.0 0.00 0.00 0.00 988.9
20171019163334 0 0.0 0.0 0.00 0.00 0.00 988.8
20171019161827 0 0.0 0.0 0.00 0.00 0.00 988.9
20171019160331 19 94 1.0 0.0 0.00 0.00 0.00 69 988.9
20171019154823 17 109 1.0 0.0 0.00 0.00 0.00 72 988.9
20171019153330 17 100 1.0 0.0 0.00 0.00 0.00 72 989.0
20171019151834 20 81 1.0 0.0 0.00 0.00 0.00 66 988.9
20171019150318 20 57 1.0 0.0 0.00 0.00 0.00 65 988.7
20171019144816 21 53 1.0 0.0 0.00 0.00 0.00 64 988.7
20171019143313 21 55 1.0 0.0 0.00 0.00 0.00 64 988.7
20171019141821 21 51 1.0 0.0 0.00 0.00 0.00 63 988.5
20171019140313 22 40 2.0 0.0 0.00 0.00 0.00 63 988.6
20171019134840 21 68 2.0 0.0 0.00 0.00 0.00 64 988.6
20171019133316 22 28 2.0 0.0 0.00 0.00 0.00 64 988.6
20171019131816 21 35 2.0 0.0 0.00 0.00 0.00 64 988.6
20171019130323 22 64 2.0 0.0 0.00 0.00 0.00 64 988.6
20171019124812 22 40 3.0 0.0 0.00 0.00 0.00 64 988.5
20171019123307 21 27 6.0 0.0 0.00 0.00 0.00 69 988.6